This demonstration page uses our WeatherBlox Daily Observations layout. Learn more.

Left ArrowRight Arrow

Hourly Observations for November 16, 2019

Temp ( °F °C ) Dew Point ( °F °C ) Humidity (%) Winds ( mph kmh ) Pressure ( in mb ) Visibility ( mi km ) Precip ( " mm )
1:53 am 01:53 Clear 42 5.6 35 1.7 76 76 Calm 30.06 1018 10 16 0.00 0.00
2:53 am 02:53 Mostly Cloudy 41 5 34 1.1 76 76 Calm 30.05 1018 10 16 0.00 0.00
3:53 am 03:53 Mostly Clear 40 4.4 33 0.6 77 77 Calm 30.06 1018 10 16 0.00 0.00
4:53 am 04:53 Mostly Cloudy 40 4.4 32 0 73 73 VRB 3 6 30.07 1018 10 16 0.00 0.00
5:53 am 05:53 Cloudy 40 4.4 34 1.1 79 79 Calm 30.08 1019 10 16 0.00 0.00
6:53 am 06:53 Cloudy 40 4.4 33 0.6 77 77 NW 5 7 30.10 1019 10 16 0.00 0.00
7:53 am 07:53 Cloudy 40 4.4 33 0.6 77 77 NW 3 6 30.11 1020 10 16 0.00 0.00
8:53 am 08:53 Cloudy 42 5.6 33 0.6 71 71 NNW 5 7 30.11 1020 10 16 0.00 0.00
9:53 am 09:53 Mostly Cloudy 46 7.8 34 1.1 63 63 NNW 5 7 30.11 1020 10 16 0.00 0.00
10:53 am 10:53 Sunny 50 10 35 1.7 57 57 WNW 7 11 30.10 1019 10 16 0.00 0.00
11:53 am 11:53 Sunny 56 13.3 37 2.8 49 49 E 3 6 30.07 1018 10 16 0.00 0.00
12:53 pm 12:53 Sunny 61 16.1 37 2.8 41 41 VRB 3 6 30.04 1017 10 16 0.00 0.00
1:53 pm 13:53 Sunny 63 17.2 36 2.2 37 37 NNW 6 9 30.02 1017 10 16 0.00 0.00
2:53 pm 14:53 Sunny 63 17.2 38 3.3 40 40 NNW 8 13 30.01 1016 10 16 0.00 0.00
3:53 pm 15:53 Sunny 63 17.2 36 2.2 37 37 NNW 9 15 30.01 1016 10 16 0.00 0.00
4:53 pm 16:53 Sunny 60 15.6 37 2.8 42 42 WNW 5 7 30.02 1017 10 16 0.00 0.00
5:53 pm 17:53 Clear 55 12.8 37 2.8 51 51 Calm 30.04 1017 10 16 0.00 0.00
6:53 pm 18:53 Clear 54 12.2 35 1.7 49 49 ENE 3 6 30.05 1018 10 16 0.00 0.00
7:53 pm 19:53 Cloudy 51 10.6 37 2.8 59 59 Calm 30.07 1018 10 16 0.00 0.00
8:53 pm 20:53 Cloudy 47 8.3 41 5 80 80 Calm 30.07 1018 10 16 0.00 0.00
9:53 pm 21:53 Mostly Clear 46 7.8 40 4.4 79 79 NNE 3 6 30.08 1019 10 16 0.00 0.00
10:53 pm 22:53 Clear 44 6.7 40 4.4 85 85 Calm 30.07 1018 10 16 0.00 0.00
11:53 pm 23:53 Clear 42 5.6 39 3.9 89 89 Calm 30.07 1018 10 16 0.00 0.00

Powered by AerisWeather